| time (UTC) | temp C | wind direction | speed KPH | gust KPH | rain 1hr cm | rain 24hr cm | rain mn cm | humidity % | barometer mb |
| 20260906225327 | 21 | 183 | 4.8 | 11.3 | 0.00 | 0.10 | 0.10 | 46 | 1027.4 |
| 20260906224822 | 21 | 291 | 4.8 | 16.1 | 0.00 | 0.10 | 0.10 | 46 | 1027.4 |
| 20260906224330 | 21 | 317 | 8.0 | 16.1 | 0.00 | 0.10 | 0.10 | 47 | 1027.4 |
| 20260906223851 | 21 | 262 | 3.2 | 8.0 | 0.00 | 0.10 | 0.10 | 55 | 1027.6 |
| 20260906223331 | 21 | 293 | 0.0 | 0.0 | 0.00 | 0.10 | 0.10 | 55 | 1027.4 |
| 20260906222820 | 21 | 43 | 0.0 | 0.0 | 0.00 | 0.10 | 0.10 | 55 | 1027.3 |
| 20260906222322 | 21 | 19 | 0.0 | 6.4 | 0.00 | 0.10 | 0.10 | 55 | 1027.3 |
| 20260906221825 | 22 | 335 | 3.2 | 6.4 | 0.00 | 0.10 | 0.10 | 54 | 1027.3 |
| 20260906221313 | 22 | 25 | 3.2 | 4.8 | 0.00 | 0.10 | 0.10 | 52 | 1027.2 |
| 20260906220834 | 22 | 41 | 3.2 | 8.0 | 0.00 | 0.10 | 0.10 | 51 | 1027.0 |
| 20260906220316 | 22 | 70 | 4.8 | 9.7 | 0.00 | 0.10 | 0.10 | 52 | 1027.1 |
| 20260906215824 | 22 | 59 | 6.4 | 11.3 | 0.00 | 0.10 | 0.10 | 53 | 1027.2 |
| 20260906215324 | 22 | 34 | 4.8 | 8.0 | 0.00 | 0.10 | 0.10 | 54 | 1027.3 |
| 20260906214827 | 22 | 73 | 3.2 | 11.3 | 0.00 | 0.10 | 0.10 | 55 | 1027.4 |
| 20260906214317 | 22 | 345 | 3.2 | 8.0 | 0.03 | 0.10 | 0.10 | 55 | 1027.3 |
| 20260906213819 | 22 | 318 | 1.6 | 6.4 | 0.03 | 0.10 | 0.10 | 57 | 1027.4 |
| 20260906213319 | 22 | 44 | 3.2 | 6.4 | 0.10 | 0.10 | 0.10 | 58 | 1027.5 |
| 20260906212827 | 22 | 89 | 0.0 | 4.8 | 0.10 | 0.10 | 0.10 | 57 | 1027.5 |
| 20260906212328 | 22 | 131 | 1.6 | 8.0 | 0.10 | 0.10 | 0.10 | 60 | 1027.5 |
| 20260906211830 | 21 | 354 | 3.2 | 11.3 | 0.10 | 0.10 | 0.10 | 61 | 1027.5 |
| 20260906211322 | 21 | 20 | 3.2 | 11.3 | 0.10 | 0.10 | 0.10 | 61 | 1027.6 |
| 20260906210822 | 21 | 333 | 1.6 | 8.0 | 0.10 | 0.10 | 0.10 | 65 | 1027.8 |
| 20260906210323 | 21 | 70 | 1.6 | 8.0 | 0.10 | 0.10 | 0.10 | 65 | 1027.8 |
| 20260906205814 | 21 | 144 | 3.2 | 9.7 | 0.10 | 0.10 | 0.10 | 59 | 1027.8 |
| 20260906205315 | 20 | 146 | 1.6 | 6.4 | 0.10 | 0.10 | 0.10 | 72 | 1027.8 |
| 20260906204819 | 19 | 53 | 0.0 | 3.2 | 0.10 | 0.10 | 0.10 | 79 | 1027.9 |
| 20260906204327 | 19 | 44 | 0.0 | 8.0 | 0.08 | 0.08 | 0.08 | 74 | 1028.1 |
| 20260906203830 | 20 | 26 | 4.8 | 8.0 | 0.08 | 0.08 | 0.08 | 66 | 1028.2 |
| 20260906203330 | 21 | 28 | 3.2 | 9.7 | 0.00 | 0.00 | 0.00 | 58 | 1028.2 |
| 20260906202820 | 21 | 79 | 4.8 | 14.5 | 0.00 | 0.00 | 0.00 | 52 | 1028.1 |
| 20260906202323 | 22 | 86 | 4.8 | 16.1 | 0.00 | 0.00 | 0.00 | 47 | 1028.1 |
| 20260906201825 | 22 | 66 | 4.8 | 8.0 | 0.00 | 0.00 | 0.00 | 46 | 1028.1 |
| 20260906201314 | 22 | 39 | 1.6 | 8.0 | 0.00 | 0.00 | 0.00 | 46 | 1028.2 |
| 20260906200816 | 23 | 60 | 3.2 | 20.9 | 0.00 | 0.00 | 0.00 | 44 | 1028.2 |
| 20260906200318 | 24 | 41 | 9.7 | 20.9 | 0.00 | 0.00 | 0.00 | 42 | 1027.8 |
| 20260906195826 | 24 | 90 | 1.6 | 11.3 | 0.00 | 0.00 | 0.00 | 41 | 1028.0 |
| 20260906195328 | 25 | 101 | 4.8 | 12.9 | 0.00 | 0.00 | 0.00 | 39 | 1028.1 |
| 20260906194850 | 26 | 323 | 4.8 | 12.9 | 0.00 | 0.00 | 0.00 | 39 | 1028.0 |
| 20260906194339 | 25 | 132 | 4.8 | 17.7 | 0.00 | 0.00 | 0.00 | 41 | 1028.0 |
| 20260906193818 | 25 | 124 | 4.8 | 12.9 | 0.00 | 0.00 | 0.00 | 41 | 1028.0 |
| 20260906193319 | 26 | 131 | 8.0 | 12.9 | 0.00 | 0.00 | 0.00 | 40 | 1028.0 |
| 20260906192829 | 26 | 146 | 4.8 | 12.9 | 0.00 | 0.00 | 0.00 | 36 | 1028.0 |
| 20260906192351 | 26 | 94 | 8.0 | 12.9 | 0.00 | 0.00 | 0.00 | 35 | 1028.2 |
| 20260906191827 | 25 | 120 | 3.2 | 19.3 | 0.00 | 0.00 | 0.00 | 36 | 1028.2 |
| 20260906191317 | 25 | 149 | 9.7 | 20.9 | 0.00 | 0.00 | 0.00 | 36 | 1028.2 |
| 20260906190819 | 25 | 127 | 9.7 | 20.9 | 0.00 | 0.00 | 0.00 | 35 | 1028.3 |
| 20260906190322 | 26 | 162 | 9.7 | 17.7 | 0.00 | 0.00 | 0.00 | 36 | 1028.3 |
| 20260906185813 | 25 | 110 | 9.7 | 17.7 | 0.00 | 0.00 | 0.00 | 35 | 1028.3 |
| 20260906185314 | 25 | 77 | 8.0 | 17.7 | 0.00 | 0.00 | 0.00 | 36 | 1028.5 |
| 20260906184815 | 25 | 137 | 4.8 | 22.5 | 0.00 | 0.00 | 0.00 | 36 | 1028.4 |
| 20260906184321 | 25 | 152 | 12.9 | 22.5 | 0.00 | 0.00 | 0.00 | 35 | 1028.5 |
| 20260906183820 | 25 | 150 | 9.7 | 19.3 | 0.00 | 0.00 | 0.00 | 35 | 1028.6 |
| 20260906183343 | 25 | 169 | 9.7 | 19.3 | 0.00 | 0.00 | 0.00 | 37 | 1028.7 |
| 20260906182830 | 25 | 131 | 8.0 | 16.1 | 0.00 | 0.00 | 0.00 | 36 | 1028.8 |
| 20260906182312 | 25 | 130 | 6.4 | 19.3 | 0.00 | 0.00 | 0.00 | 35 | 1028.9 |
| 20260906181814 | 25 | 150 | 11.3 | 25.7 | 0.00 | 0.00 | 0.00 | 37 | 1028.9 |
| 20260906181321 | 25 | 143 | 12.9 | 25.7 | 0.00 | 0.00 | 0.00 | 37 | 1029.0 |
| 20260906180842 | 25 | 132 | 12.9 | 19.3 | 0.00 | 0.00 | 0.00 | 35 | 1029.1 |
| 20260906180321 | 25 | 144 | 11.3 | 19.3 | 0.00 | 0.00 | 0.00 | 34 | 1029.1 |
| 20260906175830 | 25 | 120 | 8.0 | 17.7 | 0.00 | 0.00 | 0.00 | 36 | 1029.1 |
| 20260906175331 | 25 | 146 | 8.0 | 17.7 | 0.00 | 0.00 | 0.00 | 37 | 1029.3 |
| 20260906174854 | 25 | 217 | 8.0 | 22.5 | 0.00 | 0.00 | 0.00 | 37 | 1029.2 |
| 20260906174321 | 24 | 153 | 11.3 | 20.9 | 0.00 | 0.00 | 0.00 | 38 | 1029.4 |
| 20260906173823 | 25 | 132 | 12.9 | 17.7 | 0.00 | 0.00 | 0.00 | 40 | 1029.4 |
| 20260906173317 | 25 | 141 | 9.7 | 16.1 | 0.00 | 0.00 | 0.00 | 38 | 1029.4 |
| 20260906172827 | 25 | 121 | 11.3 | 16.1 | 0.00 | 0.00 | 0.00 | 40 | 1029.5 |
| 20260906172327 | 25 | 161 | 11.3 | 19.3 | 0.00 | 0.00 | 0.00 | 39 | 1029.6 |
| 20260906171829 | 25 | 138 | 11.3 | 19.3 | 0.00 | 0.00 | 0.00 | 39 | 1029.7 |
| 20260906171339 | 25 | 124 | 11.3 | 19.3 | 0.00 | 0.00 | 0.00 | 40 | 1029.6 |
| 20260906170820 | 25 | 191 | 9.7 | 17.7 | 0.00 | 0.00 | 0.00 | 39 | 1029.6 |
| 20260906170321 | 25 | 113 | 11.3 | 17.7 | 0.00 | 0.00 | 0.00 | 35 | 1029.7 |
| 20260906165827 | 25 | 124 | 9.7 | 16.1 | 0.00 | 0.00 | 0.00 | 37 | 1029.7 |
| 20260906165329 | 25 | 168 | 6.4 | 16.1 | 0.00 | 0.00 | 0.00 | 37 | 1029.6 |
| 20260906164852 | 25 | 141 | 6.4 | 17.7 | 0.00 | 0.00 | 0.00 | 35 | 1029.6 |
| 20260906164320 | 25 | 119 | 8.0 | 17.7 | 0.00 | 0.00 | 0.00 | 36 | 1029.7 |
| 20260906163819 | 25 | 155 | 6.4 | 16.1 | 0.00 | 0.00 | 0.00 | 35 | 1029.7 |
| 20260906163321 | 25 | 188 | 8.0 | 16.1 | 0.00 | 0.00 | 0.00 | 38 | 1029.7 |
| 20260906162830 | 25 | 212 | 6.4 | 16.1 | 0.00 | 0.00 | 0.00 | 37 | 1029.7 |
| 20260906162312 | 25 | 130 | 8.0 | 14.5 | 0.00 | 0.00 | 0.00 | 35 | 1029.7 |
| 20260906161834 | 25 | 150 | 6.4 | 11.3 | 0.00 | 0.00 | 0.00 | 33 | 1029.6 |
| 20260906161323 | 24 | 152 | 4.8 | 12.9 | 0.00 | 0.00 | 0.00 | 35 | 1029.6 |
| 20260906160825 | 24 | 123 | 6.4 | 14.5 | 0.00 | 0.00 | 0.00 | 35 | 1029.6 |
| 20260906160327 | 24 | 193 | 9.7 | 14.5 | 0.00 | 0.00 | 0.00 | 35 | 1029.7 |
| 20260906155817 | 24 | 127 | 4.8 | 11.3 | 0.00 | 0.00 | 0.00 | 34 | 1029.7 |
| 20260906155335 | 25 | 155 | 6.4 | 11.3 | 0.00 | 0.00 | 0.00 | 32 | 1029.6 |
| 20260906154814 | 25 | 136 | 3.2 | 11.3 | 0.00 | 0.00 | 0.00 | 32 | 1029.6 |
| 20260906154322 | 25 | 138 | 4.8 | 8.0 | 0.00 | 0.00 | 0.00 | 32 | 1029.6 |
| 20260906153824 | 25 | 260 | 1.6 | 6.4 | 0.00 | 0.00 | 0.00 | 32 | 1029.5 |
| 20260906153325 | 25 | 134 | 1.6 | 11.3 | 0.00 | 0.00 | 0.00 | 32 | 1029.6 |
| 20260906152815 | 25 | 175 | 3.2 | 11.3 | 0.00 | 0.00 | 0.00 | 33 | 1029.6 |
| 20260906152317 | 25 | 186 | 4.8 | 11.3 | 0.00 | 0.00 | 0.00 | 33 | 1029.6 |
| 20260906151838 | 24 | 239 | 1.6 | 3.2 | 0.00 | 0.00 | 0.00 | 33 | 1029.6 |
| 20260906151325 | 24 | 252 | 1.6 | 4.8 | 0.00 | 0.00 | 0.00 | 33 | 1029.6 |
| 20260906150826 | 23 | 146 | 0.0 | 6.4 | 0.00 | 0.00 | 0.00 | 33 | 1029.7 |
| 20260906150327 | 23 | 150 | 4.8 | 6.4 | 0.00 | 0.00 | 0.00 | 33 | 1029.9 |
| 20260906145816 | 23 | 155 | 1.6 | 6.4 | 0.00 | 0.00 | 0.00 | 34 | 1029.8 |
| 20260906145318 | 23 | 160 | 0.0 | 1.6 | 0.00 | 0.00 | 0.00 | 36 | 1029.9 |
| 20260906144818 | 22 | 198 | 0.0 | 0.0 | 0.00 | 0.00 | 0.00 | 36 | 1029.8 |
| 20260906144327 | 21 | 200 | 0.0 | 0.0 | 0.00 | 0.00 | 0.00 | 39 | 1029.8 |
| 20260906143829 | 20 | 115 | 0.0 | 0.0 | 0.00 | 0.00 | 0.00 | 41 | 1029.8 |
| 20260906143329 | 19 | 115 | 0.0 | 0.0 | 0.00 | 0.00 | 0.00 | 44 | 1029.8 |
| 20260906142818 | 18 | 115 | 0.0 | 0.0 | 0.00 | 0.00 | 0.00 | 45 | 1029.8 |
| 20260906142318 | 18 | 116 | 0.0 | 0.0 | 0.00 | 0.00 | 0.00 | 44 | 1029.8 |
| 20260906141819 | 19 | 115 | 0.0 | 0.0 | 0.00 | 0.00 | 0.00 | 44 | 1029.8 |
| 20260906141329 | 19 | 64 | 0.0 | 0.0 | 0.00 | 0.00 | 0.00 | 42 | 1029.8 |
| 20260906140829 | 18 | 63 | 0.0 | 0.0 | 0.00 | 0.00 | 0.00 | 44 | 1029.8 |
| 20260906140331 | 17 | 62 | 0.0 | 0.0 | 0.00 | 0.00 | 0.00 | 49 | 1029.7 |
| 20260906135822 | 16 | 11 | 0.0 | 0.0 | 0.00 | 0.00 | 0.00 | 50 | 1029.6 |
| 20260906135342 | 15 | 12 | 0.0 | 0.0 | 0.00 | 0.00 | 0.00 | 55 | 1029.8 |
| 20260906134822 | 14 | 12 | 0.0 | 0.0 | 0.00 | 0.00 | 0.00 | 56 | 1029.8 |
| 20260906134331 | 14 | 12 | 0.0 | 0.0 | 0.00 | 0.00 | 0.00 | 57 | 1029.8 |
| 20260906133833 | 13 | 12 | 0.0 | 0.0 | 0.00 | 0.00 | 0.00 | 58 | 1029.8 |
| 20260906133354 | 13 | 12 | 0.0 | 0.0 | 0.00 | 0.00 | 0.00 | 59 | 1029.7 |
| 20260906132823 | 12 | 12 | 0.0 | 0.0 | 0.00 | 0.00 | 0.00 | 61 | 1029.7 |
| 20260906132345 | 12 | 12 | 0.0 | 0.0 | 0.00 | 0.00 | 0.00 | 60 | 1029.8 |
| 20260906131817 | 12 | 12 | 0.0 | 0.0 | 0.00 | 0.00 | 0.00 | 60 | 1029.6 |
| 20260906131343 | 12 | 12 | 0.0 | 0.0 | 0.00 | 0.00 | 0.00 | 61 | 1029.6 |
| 20260906130822 | 12 | 5 | 0.0 | 0.0 | 0.00 | 0.00 | 0.00 | 60 | 1029.6 |
| 20260906130324 | 12 | 5 | 0.0 | 0.0 | 0.00 | 0.00 | 0.00 | 61 | 1029.4 |
| 20260906125814 | 12 | 5 | 0.0 | 0.0 | 0.00 | 0.00 | 0.00 | 61 | 1029.4 |
| 20260906125335 | 12 | 6 | 0.0 | 0.0 | 0.00 | 0.00 | 0.00 | 60 | 1029.4 |
| 20260906124816 | 12 | 5 | 0.0 | 0.0 | 0.00 | 0.00 | 0.00 | 60 | 1029.4 |
| 20260906124346 | 12 | 6 | 0.0 | 0.0 | 0.00 | 0.00 | 0.00 | 59 | 1029.4 |
| 20260906123846 | 12 | 6 | 0.0 | 0.0 | 0.00 | 0.00 | 0.00 | 59 | 1029.3 |
| 20260906123326 | 12 | 6 | 0.0 | 0.0 | 0.00 | 0.00 | 0.00 | 60 | 1029.1 |
| 20260906122837 | 12 | 311 | 0.0 | 1.6 | 0.00 | 0.00 | 0.00 | 60 | 1029.1 |
| 20260906122318 | 12 | 311 | 0.0 | 3.2 | 0.00 | 0.00 | 0.00 | 59 | 1029.2 |
| 20260906121819 | 13 | 280 | 1.6 | 3.2 | 0.00 | 0.00 | 0.00 | 58 | 1029.1 |
| 20260906121326 | 13 | 37 | 1.6 | 1.6 | 0.00 | 0.00 | 0.00 | 58 | 1029.1 |
| 20260906120828 | 12 | 37 | 0.0 | 0.0 | 0.00 | 0.00 | 0.00 | 59 | 1029.2 |
| 20260906120351 | 12 | 37 | 0.0 | 0.0 | 0.00 | 0.00 | 0.00 | 59 | 1029.2 |
| 20260906115819 | 13 | 37 | 0.0 | 0.0 | 0.00 | 0.00 | 0.00 | 59 | 1029.2 |
| 20260906115319 | 13 | 37 | 0.0 | 0.0 | 0.00 | 0.00 | 0.00 | 59 | 1029.1 |
| 20260906114820 | 12 | 37 | 0.0 | 0.0 | 0.00 | 0.00 | 0.00 | 60 | 1029.1 |
| 20260906114325 | 12 | 32 | 0.0 | 1.6 | 0.00 | 0.00 | 0.00 | 61 | 1029.3 |
| 20260906113828 | 12 | 33 | 0.0 | 1.6 | 0.00 | 0.00 | 0.00 | 62 | 1029.3 |
| 20260906113329 | 12 | 32 | 0.0 | 3.2 | 0.00 | 0.00 | 0.00 | 62 | 1029.3 |
| 20260906112820 | 13 | 32 | 0.0 | 3.2 | 0.00 | 0.00 | 0.00 | 61 | 1029.2 |
| 20260906112319 | 12 | 34 | 3.2 | 3.2 | 0.00 | 0.00 | 0.00 | 62 | 1029.1 |
| 20260906111840 | 12 | 7 | 0.0 | 0.0 | 0.00 | 0.00 | 0.00 | 64 | 1029.1 |
| 20260906111323 | 12 | 6 | 0.0 | 0.0 | 0.00 | 0.00 | 0.00 | 65 | 1029.1 |
| 20260906110822 | 12 | 355 | 0.0 | 0.0 | 0.00 | 0.00 | 0.00 | 64 | 1029.1 |
| 20260906110344 | 12 | 355 | 0.0 | 0.0 | 0.00 | 0.00 | 0.00 | 63 | 1029.0 |
| 20260906105812 | 12 | 355 | 0.0 | 0.0 | 0.00 | 0.00 | 0.00 | 63 | 1029.0 |
| 20260906105314 | 12 | 355 | 0.0 | 0.0 | 0.00 | 0.00 | 0.00 | 63 | 1029.1 |
| 20260906104813 | 12 | 355 | 0.0 | 0.0 | 0.00 | 0.00 | 0.00 | 63 | 1029.1 |
| 20260906104323 | 12 | 355 | 0.0 | 0.0 | 0.00 | 0.00 | 0.00 | 64 | 1029.3 |
| 20260906103844 | 12 | 354 | 0.0 | 1.6 | 0.00 | 0.00 | 0.00 | 65 | 1029.3 |
| 20260906103323 | 12 | 349 | 0.0 | 1.6 | 0.00 | 0.00 | 0.00 | 64 | 1029.2 |
| 20260906102832 | 12 | 349 | 1.6 | 3.2 | 0.00 | 0.00 | 0.00 | 64 | 1029.2 |
| 20260906102313 | 12 | 349 | 0.0 | 3.2 | 0.00 | 0.00 | 0.00 | 64 | 1029.1 |
| 20260906101835 | 12 | 349 | 3.2 | 3.2 | 0.00 | 0.00 | 0.00 | 63 | 1029.2 |
| 20260906101322 | 12 | 349 | 0.0 | 3.2 | 0.00 | 0.00 | 0.00 | 63 | 1029.2 |
| 20260906100823 | 13 | 349 | 1.6 | 3.2 | 0.00 | 0.00 | 0.00 | 62 | 1029.2 |
| 20260906100324 | 13 | 349 | 1.6 | 3.2 | 0.00 | 0.00 | 0.00 | 60 | 1029.2 |
| 20260906095814 | 13 | 55 | 0.0 | 0.0 | 0.00 | 0.00 | 0.00 | 59 | 1029.2 |
| 20260906095316 | 14 | 56 | 0.0 | 0.0 | 0.00 | 0.00 | 0.00 | 57 | 1029.2 |
| 20260906094818 | 15 | 56 | 0.0 | 0.0 | 0.00 | 0.00 | 0.00 | 57 | 1029.2 |
| 20260906094328 | 15 | 55 | 0.0 | 0.0 | 0.00 | 0.00 | 0.00 | 56 | 1029.3 |
| 20260906093829 | 15 | 56 | 0.0 | 0.0 | 0.00 | 0.00 | 0.00 | 57 | 1029.3 |
| 20260906093328 | 14 | 55 | 0.0 | 0.0 | 0.00 | 0.00 | 0.00 | 59 | 1029.4 |
| 20260906092820 | 13 | 56 | 0.0 | 0.0 | 0.00 | 0.00 | 0.00 | 60 | 1029.4 |
| 20260906092321 | 14 | 55 | 0.0 | 0.0 | 0.00 | 0.00 | 0.00 | 59 | 1029.5 |
| 20260906091820 | 14 | 55 | 0.0 | 1.6 | 0.00 | 0.00 | 0.00 | 58 | 1029.4 |
| 20260906091326 | 14 | 56 | 0.0 | 3.2 | 0.00 | 0.00 | 0.00 | 58 | 1029.4 |
| 20260906090828 | 14 | 56 | 1.6 | 4.8 | 0.00 | 0.00 | 0.00 | 58 | 1029.3 |
| 20260906090330 | 14 | 56 | 3.2 | 4.8 | 0.00 | 0.00 | 0.00 | 59 | 1029.2 |
| 20260906085839 | 14 | 342 | 0.0 | 0.0 | 0.00 | 0.00 | 0.00 | 59 | 1029.1 |
| 20260906085320 | 14 | 337 | 0.0 | 4.8 | 0.00 | 0.00 | 0.00 | 58 | 1029.1 |
| 20260906084821 | 14 | 22 | 1.6 | 4.8 | 0.00 | 0.00 | 0.00 | 59 | 1029.1 |
| 20260906084311 | 14 | 35 | 1.6 | 4.8 | 0.00 | 0.00 | 0.00 | 59 | 1029.1 |
| 20260906083831 | 14 | 37 | 3.2 | 4.8 | 0.00 | 0.00 | 0.00 | 59 | 1029.1 |
| 20260906083351 | 14 | 34 | 1.6 | 3.2 | 0.00 | 0.00 | 0.00 | 60 | 1029.1 |
| 20260906082839 | 15 | 37 | 0.0 | 3.2 | 0.00 | 0.00 | 0.00 | 59 | 1029.1 |
| 20260906082319 | 15 | 21 | 1.6 | 3.2 | 0.00 | 0.00 | 0.00 | 60 | 1029.2 |
| 20260906081819 | 14 | 19 | 3.2 | 3.2 | 0.00 | 0.00 | 0.00 | 61 | 1029.2 |
| 20260906081328 | 14 | 19 | 1.6 | 4.8 | 0.00 | 0.00 | 0.00 | 61 | 1029.3 |
| 20260906080848 | 15 | 23 | 1.6 | 4.8 | 0.00 | 0.00 | 0.00 | 60 | 1029.3 |
| 20260906080328 | 15 | 305 | 0.0 | 4.8 | 0.00 | 0.00 | 0.00 | 59 | 1029.4 |
| 20260906075817 | 15 | 72 | 0.0 | 3.2 | 0.00 | 0.00 | 0.00 | 59 | 1029.5 |
| 20260906075338 | 15 | 326 | 1.6 | 3.2 | 0.00 | 0.00 | 0.00 | 58 | 1029.6 |
| 20260906074821 | 15 | 20 | 1.6 | 6.4 | 0.00 | 0.00 | 0.00 | 59 | 1029.6 |
| 20260906074329 | 15 | 349 | 1.6 | 6.4 | 0.00 | 0.00 | 0.00 | 59 | 1029.5 |
| 20260906073851 | 15 | 32 | 0.0 | 4.8 | 0.00 | 0.00 | 0.00 | 60 | 1029.6 |
| 20260906073332 | 16 | 285 | 3.2 | 4.8 | 0.00 | 0.00 | 0.00 | 59 | 1029.5 |
| 20260906072844 | 16 | 49 | 1.6 | 4.8 | 0.00 | 0.00 | 0.00 | 59 | 1029.6 |
| 20260906072325 | 15 | 125 | 1.6 | 3.2 | 0.00 | 0.00 | 0.00 | 59 | 1029.6 |
| 20260906071824 | 16 | 134 | 0.0 | 1.6 | 0.00 | 0.00 | 0.00 | 59 | 1029.6 |
| 20260906071311 | 16 | 135 | 0.0 | 6.4 | 0.00 | 0.00 | 0.00 | 58 | 1029.6 |
| 20260906070832 | 16 | 134 | 3.2 | 6.4 | 0.00 | 0.00 | 0.00 | 57 | 1029.6 |
| 20260906070333 | 16 | 102 | 3.2 | 8.0 | 0.00 | 0.00 | 0.00 | 57 | 1029.6 |
| 20260906065823 | 17 | 132 | 3.2 | 8.0 | 0.00 | 0.00 | 0.00 | 56 | 1029.5 |
| 20260906065325 | 17 | 138 | 1.6 | 6.4 | 0.00 | 0.00 | 0.00 | 56 | 1029.6 |
| 20260906064847 | 17 | 181 | 1.6 | 8.0 | 0.00 | 0.00 | 0.00 | 56 | 1029.6 |
| 20260906064315 | 17 | 205 | 3.2 | 11.3 | 0.00 | 0.00 | 0.00 | 56 | 1029.7 |
| 20260906063817 | 17 | 108 | 3.2 | 9.7 | 0.00 | 0.00 | 0.00 | 56 | 1029.7 |
| 20260906063319 | 17 | 245 | 4.8 | 9.7 | 0.00 | 0.00 | 0.00 | 55 | 1029.6 |
| 20260906062827 | 17 | 144 | 0.0 | 6.4 | 0.00 | 0.00 | 0.00 | 54 | 1029.7 |
| 20260906062344 | 17 | 82 | 3.2 | 6.4 | 0.00 | 0.00 | 0.00 | 53 | 1029.8 |
| 20260906061824 | 17 | 266 | 1.6 | 8.0 | 0.00 | 0.00 | 0.00 | 53 | 1029.6 |
| 20260906061312 | 18 | 304 | 1.6 | 8.0 | 0.00 | 0.00 | 0.00 | 52 | 1029.8 |
| 20260906060814 | 17 | 163 | 3.2 | 9.7 | 0.00 | 0.00 | 0.00 | 53 | 1029.8 |
| 20260906060337 | 17 | 289 | 4.8 | 9.7 | 0.00 | 0.00 | 0.00 | 55 | 1029.9 |
| 20260906055823 | 18 | 314 | 0.0 | 0.0 | 0.00 | 0.00 | 0.00 | 56 | 1029.9 |
| 20260906055324 | 18 | 152 | 0.0 | 0.0 | 0.00 | 0.00 | 0.00 | 52 | 1029.9 |
| 20260906054826 | 18 | 152 | 0.0 | 0.0 | 0.00 | 0.00 | 0.00 | 49 | 1030.1 |
| 20260906054315 | 18 | 113 | 0.0 | 0.0 | 0.00 | 0.00 | 0.00 | 48 | 1030.2 |
| 20260906053818 | 18 | 91 | 0.0 | 9.7 | 0.00 | 0.00 | 0.00 | 48 | 1030.2 |
| 20260906053319 | 19 | 229 | 4.8 | 9.7 | 0.00 | 0.00 | 0.00 | 47 | 1030.3 |
| 20260906052830 | 18 | 150 | 4.8 | 11.3 | 0.00 | 0.00 | 0.00 | 48 | 1030.4 |
| 20260906052312 | 19 | 110 | 4.8 | 14.5 | 0.00 | 0.00 | 0.00 | 47 | 1030.4 |
| 20260906051812 | 19 | 129 | 4.8 | 19.3 | 0.00 | 0.00 | 0.00 | 47 | 1030.2 |
| 20260906051324 | 19 | 293 | 3.2 | 19.3 | 0.00 | 0.00 | 0.00 | 47 | 1030.1 |
| 20260906050825 | 19 | 291 | 4.8 | 14.5 | 0.00 | 0.00 | 0.00 | 47 | 1030.1 |
| 20260906050327 | 19 | 249 | 3.2 | 16.1 | 0.00 | 0.00 | 0.00 | 47 | 1030.2 |
| 20260906045817 | 19 | 284 | 4.8 | 12.9 | 0.00 | 0.00 | 0.00 | 46 | 1030.1 |
| 20260906045318 | 19 | 269 | 1.6 | 11.3 | 0.00 | 0.00 | 0.00 | 46 | 1030.1 |
| 20260906044819 | 19 | 204 | 0.0 | 6.4 | 0.00 | 0.00 | 0.00 | 47 | 1030.1 |
| 20260906044328 | 19 | 231 | 1.6 | 6.4 | 0.00 | 0.00 | 0.00 | 47 | 1030.0 |
| 20260906043849 | 19 | 136 | 1.6 | 4.8 | 0.00 | 0.00 | 0.00 | 47 | 1030.0 |
| 20260906043351 | 19 | 287 | 1.6 | 12.9 | 0.00 | 0.00 | 0.00 | 46 | 1029.8 |
| 20260906042819 | 19 | 231 | 6.4 | 12.9 | 0.00 | 0.00 | 0.00 | 47 | 1029.9 |
| 20260906042340 | 19 | 311 | 3.2 | 20.9 | 0.00 | 0.00 | 0.00 | 47 | 1029.9 |
| 20260906041822 | 19 | 284 | 6.4 | 19.3 | 0.00 | 0.00 | 0.00 | 47 | 1029.9 |
| 20260906041332 | 19 | 112 | 3.2 | 17.7 | 0.00 | 0.00 | 0.00 | 46 | 1029.9 |
| 20260906040854 | 19 | 142 | 6.4 | 17.7 | 0.00 | 0.00 | 0.00 | 46 | 1029.9 |
| 20260906040354 | 18 | 266 | 4.8 | 14.5 | 0.00 | 0.00 | 0.00 | 46 | 1029.8 |
| 20260906035824 | 18 | 245 | 4.8 | 14.5 | 0.00 | 0.00 | 0.00 | 48 | 1030.1 |
| 20260906035326 | 18 | 342 | 4.8 | 12.9 | 0.00 | 0.00 | 0.00 | 49 | 1030.1 |
| 20260906034847 | 17 | 316 | 3.2 | 12.9 | 0.00 | 0.00 | 0.00 | 50 | 1030.2 |
| 20260906034316 | 17 | 232 | 3.2 | 8.0 | 0.00 | 0.00 | 0.00 | 52 | 1030.1 |
| 20260906033818 | 17 | 68 | 3.2 | 8.0 | 0.00 | 0.00 | 0.00 | 53 | 1030.1 |
| 20260906033319 | 17 | 222 | 0.0 | 6.4 | 0.00 | 0.00 | 0.00 | 54 | 1029.8 |
| 20260906032826 | 17 | 233 | 3.2 | 6.4 | 0.00 | 0.00 | 0.00 | 54 | 1029.9 |
| 20260906032329 | 17 | 143 | 3.2 | 4.8 | 0.00 | 0.00 | 0.00 | 53 | 1029.7 |
| 20260906031831 | 17 | 98 | 1.6 | 6.4 | 0.00 | 0.00 | 0.00 | 53 | 1029.6 |
| 20260906031321 | 17 | 104 | 3.2 | 4.8 | 0.00 | 0.00 | 0.00 | 53 | 1029.5 |
| 20260906030823 | 17 | 158 | 1.6 | 6.4 | 0.00 | 0.00 | 0.00 | 53 | 1029.5 |
| 20260906030325 | 17 | 149 | 3.2 | 6.4 | 0.00 | 0.00 | 0.00 | 53 | 1029.5 |
| 20260906025814 | 17 | 149 | 0.0 | 4.8 | 0.00 | 0.00 | 0.00 | 53 | 1029.4 |
| 20260906025316 | 17 | 152 | 1.6 | 6.4 | 0.00 | 0.00 | 0.00 | 53 | 1029.4 |
| 20260906024818 | 17 | 108 | 0.0 | 0.0 | 0.00 | 0.00 | 0.00 | 52 | 1029.3 |
| 20260906024321 | 17 | 101 | 0.0 | 0.0 | 0.00 | 0.00 | 0.00 | 51 | 1029.2 |
| 20260906023843 | 17 | 102 | 0.0 | 0.0 | 0.00 | 0.00 | 0.00 | 49 | 1029.1 |
| 20260906023324 | 18 | 103 | 0.0 | 0.0 | 0.00 | 0.00 | 0.00 | 49 | 1029.0 |
| 20260906022814 | 17 | 112 | 0.0 | 0.0 | 0.00 | 0.00 | 0.00 | 50 | 1029.0 |
| 20260906022316 | 17 | 101 | 0.0 | 0.0 | 0.00 | 0.00 | 0.00 | 50 | 1029.1 |
| 20260906021817 | 17 | 104 | 0.0 | 0.0 | 0.00 | 0.00 | 0.00 | 50 | 1029.1 |
| 20260906021327 | 18 | 105 | 0.0 | 0.0 | 0.00 | 0.00 | 0.00 | 49 | 1029.0 |
| 20260906020827 | 18 | 105 | 0.0 | 0.0 | 0.00 | 0.00 | 0.00 | 49 | 1028.9 |
| 20260906020329 | 18 | 104 | 0.0 | 3.2 | 0.00 | 0.00 | 0.00 | 47 | 1028.9 |
| 20260906015819 | 19 | 14 | 1.6 | 3.2 | 0.00 | 0.00 | 0.00 | 46 | 1028.8 |
| 20260906015323 | 20 | 7 | 0.0 | 4.8 | 0.00 | 0.00 | 0.00 | 45 | 1028.7 |
| 20260906014824 | 20 | 338 | 3.2 | 8.0 | 0.00 | 0.00 | 0.00 | 47 | 1028.6 |
| 20260906014314 | 20 | 6 | 0.0 | 11.3 | 0.00 | 0.00 | 0.00 | 41 | 1029.0 |
| 20260906013816 | 20 | 232 | 3.2 | 12.9 | 0.00 | 0.00 | 0.00 | 41 | 1029.0 |
| 20260906013338 | 20 | 271 | 6.4 | 17.7 | 0.00 | 0.00 | 0.00 | 42 | 1029.2 |
| 20260906012829 | 20 | 263 | 9.7 | 17.7 | 0.00 | 0.00 | 0.00 | 43 | 1029.2 |
| 20260906012330 | 20 | 229 | 4.8 | 11.3 | 0.00 | 0.00 | 0.00 | 43 | 1029.3 |
| 20260906011831 | 20 | 287 | 4.8 | 9.7 | 0.00 | 0.00 | 0.00 | 42 | 1029.1 |
| 20260906011321 | 20 | 155 | 1.6 | 6.4 | 0.00 | 0.00 | 0.00 | 41 | 1028.9 |
| 20260906010822 | 21 | 233 | 0.0 | 1.6 | 0.00 | 0.00 | 0.00 | 40 | 1029.0 |
| 20260906010324 | 21 | 246 | 0.0 | 4.8 | 0.00 | 0.00 | 0.00 | 40 | 1028.9 |
| 20260906005815 | 21 | 246 | 1.6 | 4.8 | 0.00 | 0.00 | 0.00 | 39 | 1028.8 |
| 20260906005337 | 21 | 323 | 1.6 | 3.2 | 0.00 | 0.00 | 0.00 | 39 | 1029.0 |
| 20260906004819 | 21 | 271 | 1.6 | 4.8 | 0.00 | 0.00 | 0.00 | 38 | 1029.1 |
| 20260906004329 | 21 | 278 | 1.6 | 4.8 | 0.00 | 0.00 | 0.00 | 37 | 1029.1 |
| 20260906003812 | 22 | 330 | 0.0 | 4.8 | 0.00 | 0.00 | 0.00 | 36 | 1029.1 |
| 20260906003333 | 22 | 284 | 0.0 | 8.0 | 0.00 | 0.00 | 0.00 | 35 | 1029.1 |
| 20260906002845 | 23 | 8 | 3.2 | 8.0 | 0.00 | 0.00 | 0.00 | 35 | 1029.0 |
| 20260906002325 | 23 | 119 | 3.2 | 9.7 | 0.00 | 0.00 | 0.00 | 34 | 1028.8 |
| 20260906001828 | 23 | 336 | 4.8 | 11.3 | 0.00 | 0.00 | 0.00 | 34 | 1028.9 |
| 20260906001319 | 23 | 259 | 4.8 | 11.3 | 0.00 | 0.00 | 0.00 | 33 | 1028.8 |
| 20260906000840 | 23 | 304 | 3.2 | 9.7 | 0.00 | 0.00 | 0.00 | 34 | 1028.8 |
| 20260906000321 | 23 | 321 | 4.8 | 11.3 | 0.00 | 0.00 | 0.00 | 34 | 1028.9 |
| 20260905235829 | 23 | 285 | 4.8 | 12.9 | 0.00 | 0.00 | 0.00 | 34 | 1028.9 |
| 20260905235312 | 23 | 295 | 6.4 | 12.9 | 0.00 | 0.00 | 0.00 | 35 | 1028.8 |
| 20260905234834 | 23 | 295 | 6.4 | 16.1 | 0.00 | 0.00 | 0.00 | 35 | 1028.8 |
| 20260905234325 | 23 | 262 | 6.4 | 16.1 | 0.00 | 0.00 | 0.00 | 34 | 1028.8 |
| 20260905233826 | 23 | 283 | 4.8 | 16.1 | 0.00 | 0.00 | 0.00 | 35 | 1028.7 |
| 20260905233348 | 23 | 297 | 4.8 | 14.5 | 0.00 | 0.00 | 0.00 | 36 | 1028.6 |
| 20260905232818 | 23 | 283 | 6.4 | 14.5 | 0.00 | 0.00 | 0.00 | 35 | 1028.9 |
| 20260905232320 | 23 | 301 | 4.8 | 11.3 | 0.00 | 0.00 | 0.00 | 34 | 1028.8 |
| 20260905231820 | 23 | 281 | 3.2 | 12.9 | 0.00 | 0.00 | 0.00 | 32 | 1028.8 |
| 20260905231327 | 23 | 269 | 6.4 | 12.9 | 0.00 | 0.00 | 0.00 | 32 | 1028.7 |
| 20260905230845 | 23 | 287 | 4.8 | 8.0 | 0.00 | 0.00 | 0.00 | 30 | 1028.5 |
| 20260905230326 | 23 | 28 | 3.2 | 9.7 | 0.00 | 0.00 | 0.00 | 31 | 1028.5 |
| 20260905225817 | 24 | 345 | 4.8 | 9.7 | 0.00 | 0.00 | 0.00 | 30 | 1028.5 |